Change the Weather History Date:

Thursday, December 12, 2013

  Actual Average (KESN) Record (KESN)
Temperature  
Mean Temperature 32 °F -  
Max Temperature 35 °F 49 °F 59 °F (1959)
Min Temperature 28 °F 31 °F 12 °F (1962)
Degree Days  
Heating Degree Days 34    
Moisture  
Dew Point 15 °F    
Average Humidity 53    
Maximum Humidity 93    
Minimum Humidity 35    
Precipitation  
Precipitation 0.00 in - - ()
Sea Level Pressure  
Sea Level Pressure 30.35 in    
Wind  
Wind Speed 8 mph (NW)    
Max Wind Speed 17 mph    
Max Gust Speed 25 mph    
Visibility 10 miles    
Events      
Averages and records for this station are not official NWS values.
T = Trace of Precipitation, MM = Missing Value Source: NWS Daily Summary

Daily Weather History Graph

Daily Weather History Graph

Search for Another Location

Airport or City:

Trip Planner

Search our weather history database for the weather conditions in past years. The results will help you decide how hot, cold, wet, or windy it might be!

Date:

Astronomy

Dec. 12, 2013 Rise Set
Actual Time 7:14 AM EST 4:43 PM EST
Civil Twilight 6:45 AM EST 5:13 PM EST
Nautical Twilight 6:11 AM EST 5:46 PM EST
Astronomical Twilight 5:39 AM EST 6:19 PM EST
Moon 1:47 PM EST (12/12) 2:37 AM EST (12/12)
Length of Visible Light 10h 28m
Length of Day
9h 28m
Waxing Gibbous, 80% of the Moon is Illuminated
Dec 12
Waxing Gibbous
Dec 17
Full
Dec 25
Last Quarter
Jan 1
New
Jan 7
First Quarter

Hourly Weather History & Observations

Time (EST) Temp. Windchill Dew Point Humidity Pressure Visibility Wind Dir Wind Speed Gust Speed Precip Events Conditions
12:07 AM 28.4 °F - 26.6 °F 93% 30.27 in 10.0 mi Calm Calm - N/A   Clear
12:27 AM 28.4 °F - 26.6 °F 93% 30.26 in 10.0 mi Calm Calm - N/A   Clear
12:47 AM 28.4 °F - 26.6 °F 93% 30.25 in 10.0 mi Calm Calm - N/A   Clear
1:07 AM 28.4 °F - 26.6 °F 93% 30.25 in 10.0 mi Calm Calm - N/A   Clear
1:27 AM 28.4 °F - 26.6 °F 93% 30.26 in 10.0 mi Calm Calm - N/A   Clear
1:47 AM 28.4 °F 24.6 °F 26.6 °F 93% 30.27 in 10.0 mi NW 3.5 mph - N/A   Clear
2:07 AM 32.0 °F 25.6 °F 28.4 °F 87% 30.27 in 10.0 mi NW 6.9 mph - N/A   Clear
2:27 AM 35.6 °F 26.6 °F 23.0 °F 60% 30.28 in 10.0 mi NW 13.8 mph 19.6 mph N/A   Clear
2:47 AM 33.8 °F 24.8 °F 23.0 °F 65% 30.30 in 10.0 mi NW 12.7 mph 17.3 mph N/A   Clear
3:07 AM 33.8 °F 23.9 °F 23.0 °F 65% 30.30 in 10.0 mi NNW 15.0 mph 21.9 mph N/A   Clear
3:27 AM 33.8 °F 24.3 °F 23.0 °F 65% 30.30 in 10.0 mi NW 13.8 mph 21.9 mph N/A   Clear
3:47 AM 32.0 °F 20.8 °F 21.2 °F 64% 30.31 in 10.0 mi NNW 17.3 mph 25.3 mph N/A   Clear
4:07 AM 32.0 °F 22.5 °F 21.2 °F 64% 30.32 in 10.0 mi North 12.7 mph 18.4 mph N/A   Clear
4:27 AM 32.0 °F 22.1 °F 21.2 °F 64% 30.32 in 10.0 mi NNW 13.8 mph 21.9 mph N/A   Clear
4:47 AM 32.0 °F 22.1 °F 19.4 °F 60% 30.33 in 10.0 mi NNW 13.8 mph 19.6 mph N/A   Clear
5:07 AM 32.0 °F 22.1 °F 19.4 °F 60% 30.33 in 10.0 mi NNW 13.8 mph 21.9 mph N/A   Clear
5:27 AM 32.0 °F 21.2 °F 17.6 °F 55% 30.33 in 10.0 mi NNW 16.1 mph 23.0 mph N/A   Clear
5:47 AM 32.0 °F 21.6 °F 17.6 °F 55% 30.34 in 10.0 mi NNW 15.0 mph 20.7 mph N/A   Clear
6:07 AM 30.2 °F 19.8 °F 17.6 °F 60% 30.35 in 10.0 mi NNW 13.8 mph 19.6 mph N/A   Clear
6:27 AM 30.2 °F 19.3 °F 15.8 °F 55% 30.36 in 10.0 mi NNW 15.0 mph 23.0 mph N/A   Clear
6:47 AM 30.2 °F 18.9 °F 14.0 °F 51% 30.37 in 10.0 mi NW 16.1 mph 25.3 mph N/A   Clear
7:07 AM 30.2 °F 20.2 °F 14.0 °F 51% 30.37 in 10.0 mi NW 12.7 mph 20.7 mph N/A   Clear
7:27 AM 30.2 °F 19.3 °F 14.0 °F 51% 30.38 in 10.0 mi NW 15.0 mph 20.7 mph N/A   Clear
7:48 AM 30.2 °F 18.5 °F 14.0 °F 51% 30.39 in 10.0 mi NW 17.3 mph 20.7 mph N/A   Clear
8:08 AM 30.2 °F 19.3 °F 14.0 °F 51% 30.40 in 10.0 mi NW 15.0 mph 20.7 mph N/A   Clear
8:28 AM 30.2 °F 19.8 °F 12.2 °F 47% 30.41 in 10.0 mi NW 13.8 mph 23.0 mph N/A   Clear
8:48 AM 30.2 °F 19.8 °F 12.2 °F 47% 30.41 in 10.0 mi NW 13.8 mph 19.6 mph N/A   Clear
9:08 AM 30.2 °F 19.8 °F 14.0 °F 51% 30.42 in 10.0 mi NW 13.8 mph 19.6 mph N/A   Clear
9:28 AM 30.2 °F 18.9 °F 12.2 °F 47% 30.43 in 10.0 mi NW 16.1 mph 20.7 mph N/A   Clear
9:48 AM 30.2 °F 18.9 °F 14.0 °F 51% 30.43 in 10.0 mi NW 16.1 mph - N/A   Clear
10:08 AM 30.2 °F 19.3 °F 12.2 °F 47% 30.43 in 10.0 mi NW 15.0 mph 18.4 mph N/A   Clear
10:28 AM 30.2 °F 20.2 °F 12.2 °F 47% 30.43 in 10.0 mi NW 12.7 mph 20.7 mph N/A   Clear
10:48 AM 30.2 °F 20.2 °F 10.4 °F 44% 30.42 in 10.0 mi NW 12.7 mph 18.4 mph N/A   Clear
11:08 AM 30.2 °F 21.9 °F 10.4 °F 44% 30.42 in 10.0 mi NNW 9.2 mph - N/A   Clear
11:28 AM 30.2 °F 22.6 °F 10.4 °F 44% 30.40 in 10.0 mi NNW 8.1 mph - N/A   Clear
11:48 AM 32.0 °F 24.2 °F 10.4 °F 41% 30.39 in 10.0 mi NW 9.2 mph - N/A   Clear
12:08 PM 32.0 °F 23.0 °F 10.4 °F 41% 30.38 in 10.0 mi NW 11.5 mph - N/A   Clear
12:28 PM 32.0 °F 25.6 °F 10.4 °F 41% 30.37 in 10.0 mi WNW 6.9 mph - N/A   Clear
12:48 PM 32.0 °F 25.6 °F 10.4 °F 41% 30.36 in 10.0 mi NW 6.9 mph - N/A   Clear
1:08 PM 32.0 °F 23.6 °F 8.6 °F 38% 30.36 in 10.0 mi WNW 10.4 mph 17.3 mph N/A   Clear
1:28 PM 32.0 °F 24.2 °F 8.6 °F 38% 30.35 in 10.0 mi WNW 9.2 mph - N/A   Clear
1:48 PM 32.0 °F 24.8 °F 8.6 °F 38% 30.35 in 10.0 mi WNW 8.1 mph - N/A   Clear
2:08 PM 32.0 °F 23.6 °F 6.8 °F 35% 30.34 in 10.0 mi WNW 10.4 mph - N/A   Clear
2:28 PM 32.0 °F 25.6 °F 6.8 °F 35% 30.35 in 10.0 mi West 6.9 mph - N/A   Clear
2:48 PM 32.0 °F 23.6 °F 6.8 °F 35% 30.35 in 10.0 mi WNW 10.4 mph - N/A   Clear
3:08 PM 32.0 °F 23.6 °F 6.8 °F 35% 30.35 in 10.0 mi WNW 10.4 mph - N/A   Clear
3:28 PM 32.0 °F 24.8 °F 6.8 °F 35% 30.34 in 10.0 mi West 8.1 mph - N/A   Clear
3:48 PM 32.0 °F 26.4 °F 8.6 °F 38% 30.34 in 10.0 mi WNW 5.8 mph - N/A   Clear
4:08 PM 32.0 °F 27.5 °F 10.4 °F 41% 30.34 in 10.0 mi WNW 4.6 mph - N/A   Clear
4:29 PM 30.2 °F 25.4 °F 8.6 °F 40% 30.35 in 10.0 mi West 4.6 mph - N/A   Clear
4:49 PM 30.2 °F 23.4 °F 8.6 °F 40% 30.35 in 10.0 mi WNW 6.9 mph - N/A   Clear
5:09 PM 30.2 °F 22.6 °F 8.6 °F 40% 30.35 in 10.0 mi West 8.1 mph - N/A   Clear
5:29 PM 30.2 °F 24.3 °F 10.4 °F 44% 30.35 in 10.0 mi West 5.8 mph - N/A   Clear
5:49 PM 30.2 °F 21.9 °F 8.6 °F 40% 30.35 in 10.0 mi West 9.2 mph - N/A   Clear
6:09 PM 30.2 °F 21.9 °F 10.4 °F 44% 30.35 in 10.0 mi West 9.2 mph - N/A   Clear
10:52 PM 30.2 °F 24.3 °F 12.2 °F 47% 30.28 in 10.0 mi SSW 5.8 mph - N/A   Clear